| time (UTC) | temp F | wind direction | speed knots | gust knots | rain 1hr in | rain 24hr in | rain mn in | humidity % | barometer mb |
| 20260906090108 | 68 | 90 | 5.2 | 8.7 | 0.00 | 0.00 | 0.00 | 96 | 1018.3 |
| 20260906084606 | 68 | 82 | 3.5 | 7.0 | 0.00 | 0.00 | 0.00 | 96 | 1018.1 |
| 20260906083103 | 69 | 77 | 3.5 | 8.7 | 0.00 | 0.00 | 0.00 | 96 | 1018.3 |
| 20260906081619 | 69 | 87 | 4.3 | 10.4 | 0.00 | 0.00 | 0.00 | 96 | 1018.2 |
| 20260906080107 | 69 | 111 | 5.2 | 8.7 | 0.00 | 0.00 | 0.00 | 96 | 1018.0 |
| 20260906074616 | 70 | 104 | 6.1 | 9.6 | 0.00 | 0.00 | 0.00 | 95 | 1018.4 |
| 20260906073102 | 70 | 73 | 6.1 | 10.4 | 0.00 | 0.00 | 0.00 | 95 | 1018.6 |
| 20260906071605 | 70 | 64 | 4.3 | 9.6 | 0.00 | 0.00 | 0.00 | 95 | 1018.8 |
| 20260906070100 | 71 | 74 | 5.2 | 10.4 | 0.00 | 0.00 | 0.00 | 94 | 1018.8 |
| 20260906064603 | 71 | 57 | 6.1 | 10.4 | 0.00 | 0.00 | 0.00 | 94 | 1018.9 |
| 20260906063103 | 71 | 61 | 5.2 | 10.4 | 0.00 | 0.00 | 0.00 | 94 | 1018.7 |
| 20260906061610 | 71 | 43 | 3.5 | 8.7 | 0.00 | 0.00 | 0.00 | 94 | 1019.0 |
| 20260906060112 | 71 | 56 | 5.2 | 9.6 | 0.00 | 0.00 | 0.00 | 94 | 1018.7 |
| 20260906054605 | 71 | 80 | 4.3 | 7.0 | 0.00 | 0.00 | 0.00 | 94 | 1018.6 |
| 20260906053102 | 72 | 58 | 2.6 | 6.1 | 0.00 | 0.00 | 0.00 | 94 | 1018.9 |
| 20260906051606 | 72 | 51 | 2.6 | 6.1 | 0.00 | 0.00 | 0.00 | 94 | 1018.5 |
| 20260906050113 | 72 | 54 | 3.5 | 6.1 | 0.00 | 0.00 | 0.00 | 94 | 1018.4 |
| 20260906044602 | 72 | 23 | 1.7 | 7.8 | 0.00 | 0.00 | 0.00 | 93 | 1018.6 |
| 20260906043102 | 72 | 55 | 0.0 | 3.5 | 0.00 | 0.00 | 0.00 | 93 | 1018.6 |
| 20260906041608 | 72 | 55 | 1.7 | 6.1 | 0.00 | 0.00 | 0.00 | 93 | 1018.4 |
| 20260906040107 | 72 | 38 | 1.7 | 5.2 | 0.00 | 0.00 | 0.00 | 93 | 1018.3 |
| 20260906034606 | 73 | 25 | 1.7 | 4.3 | 0.00 | 0.00 | 0.00 | 92 | 1018.2 |
| 20260906033105 | 73 | 24 | 1.7 | 3.5 | 0.00 | 0.00 | 0.00 | 93 | 1018.2 |
| 20260906031607 | 73 | 24 | 0.9 | 1.7 | 0.00 | 0.00 | 0.00 | 92 | 1018.1 |
| 20260906030106 | 73 | 24 | 0.9 | 3.5 | 0.00 | 0.00 | 0.00 | 92 | 1018.1 |
| 20260906024604 | 73 | 24 | 1.7 | 4.3 | 0.00 | 0.00 | 0.00 | 92 | 1018.0 |
| 20260906023105 | 74 | 24 | 2.6 | 5.2 | 0.00 | 0.00 | 0.00 | 92 | 1017.9 |
| 20260906021608 | 74 | 103 | 0.9 | 3.5 | 0.00 | 0.00 | 0.00 | 92 | 1017.6 |
| 20260906020106 | 74 | 103 | 1.7 | 3.5 | 0.00 | 0.00 | 0.00 | 91 | 1017.2 |
| 20260906014607 | 75 | 104 | 0.9 | 5.2 | 0.00 | 0.00 | 0.00 | 90 | 1017.0 |
| 20260906013104 | 75 | 104 | 1.7 | 5.2 | 0.00 | 0.00 | 0.00 | 89 | 1016.6 |
| 20260906011606 | 76 | 103 | 0.9 | 6.1 | 0.00 | 0.00 | 0.00 | 89 | 1016.6 |
| 20260906010106 | 76 | 101 | 2.6 | 8.7 | 0.00 | 0.00 | 0.00 | 88 | 1016.6 |
| 20260906004608 | 77 | 80 | 6.1 | 11.3 | 0.00 | 0.00 | 0.00 | 88 | 1016.6 |
| 20260906003108 | 77 | 83 | 7.8 | 12.2 | 0.00 | 0.00 | 0.00 | 87 | 1016.5 |
| 20260906001610 | 78 | 78 | 3.5 | 7.8 | 0.00 | 0.00 | 0.00 | 86 | 1016.4 |
| 20260906000104 | 79 | 63 | 3.5 | 7.8 | 0.00 | 0.00 | 0.00 | 85 | 1016.4 |
| 20260905234601 | 79 | 63 | 7.0 | 12.2 | 0.00 | 0.00 | 0.00 | 84 | 1016.3 |
| 20260905233107 | 80 | 93 | 7.8 | 13.9 | 0.00 | 0.00 | 0.00 | 83 | 1016.2 |
| 20260905231604 | 81 | 79 | 7.8 | 13.0 | 0.00 | 0.00 | 0.00 | 81 | 1016.4 |
| 20260905230108 | 81 | 66 | 8.7 | 13.9 | 0.00 | 0.00 | 0.00 | 80 | 1016.4 |
| 20260905224609 | 81 | 58 | 10.4 | 14.8 | 0.00 | 0.00 | 0.00 | 81 | 1016.1 |
| 20260905223107 | 81 | 72 | 8.7 | 13.9 | 0.00 | 0.00 | 0.00 | 82 | 1016.2 |
| 20260905221608 | 82 | 53 | 7.0 | 14.8 | 0.00 | 0.00 | 0.00 | 80 | 1016.4 |
| 20260905220110 | 81 | 62 | 7.0 | 13.9 | 0.00 | 0.00 | 0.00 | 82 | 1016.3 |
| 20260905214603 | 82 | 57 | 6.1 | 13.0 | 0.00 | 0.00 | 0.00 | 80 | 1016.3 |
| 20260905213107 | 82 | 5 | 6.1 | 13.0 | 0.00 | 0.00 | 0.00 | 81 | 1016.4 |
| 20260905211630 | 83 | 55 | 7.0 | 13.0 | 0.00 | 0.00 | 0.00 | 81 | 1016.4 |
| 20260905210124 | 82 | 34 | 7.8 | 13.0 | 0.00 | 0.00 | 0.00 | 82 | 1016.6 |
| 20260905204608 | 83 | 51 | 7.8 | 12.2 | 0.00 | 0.00 | 0.00 | 82 | 1016.6 |
| 20260905203118 | 84 | 36 | 7.0 | 12.2 | 0.00 | 0.00 | 0.00 | 83 | 1016.5 |
| 20260905201607 | 85 | 43 | 7.0 | 13.9 | 0.00 | 0.00 | 0.00 | 80 | 1016.4 |
| 20260905200104 | 86 | 47 | 5.2 | 13.9 | 0.00 | 0.00 | 0.00 | 81 | 1016.3 |
| 20260905194605 | 86 | 25 | 4.3 | 13.0 | 0.00 | 0.00 | 0.00 | 78 | 1016.6 |
| 20260905193100 | 86 | 54 | 4.3 | 11.3 | 0.00 | 0.00 | 0.00 | 81 | 1016.7 |
| 20260905191607 | 85 | 52 | 4.3 | 11.3 | 0.00 | 0.00 | 0.00 | 81 | 1017.1 |
| 20260905190107 | 86 | 32 | 4.3 | 11.3 | 0.00 | 0.00 | 0.00 | 80 | 1017.0 |
| 20260905184607 | 87 | 39 | 4.3 | 10.4 | 0.00 | 0.00 | 0.00 | 80 | 1016.9 |
| 20260905183103 | 86 | 24 | 4.3 | 10.4 | 0.00 | 0.00 | 0.00 | 80 | 1016.9 |
| 20260905181613 | 86 | 24 | 5.2 | 12.2 | 0.00 | 0.00 | 0.00 | 80 | 1016.9 |
| 20260905180109 | 85 | 15 | 4.3 | 10.4 | 0.00 | 0.00 | 0.00 | 82 | 1016.9 |
| 20260905174604 | 85 | 60 | 5.2 | 12.2 | 0.00 | 0.00 | 0.00 | 82 | 1016.8 |
| 20260905173103 | 85 | 61 | 7.8 | 13.0 | 0.00 | 0.00 | 0.00 | 81 | 1016.8 |
| 20260905171603 | 85 | 42 | 4.3 | 11.3 | 0.00 | 0.00 | 0.00 | 82 | 1017.0 |
| 20260905170107 | 86 | 26 | 7.8 | 12.2 | 0.00 | 0.00 | 0.00 | 81 | 1017.0 |
| 20260905164606 | 85 | 42 | 3.5 | 11.3 | 0.00 | 0.00 | 0.00 | 82 | 1017.0 |
| 20260905163103 | 85 | 37 | 6.1 | 12.2 | 0.00 | 0.00 | 0.00 | 82 | 1017.1 |
| 20260905161604 | 84 | 59 | 7.8 | 12.2 | 0.00 | 0.00 | 0.00 | 82 | 1017.3 |
| 20260905160136 | 85 | 31 | 7.0 | 13.0 | 0.00 | 0.00 | 0.00 | 82 | 1017.2 |
| 20260905154604 | 84 | 46 | 5.2 | 10.4 | 0.00 | 0.00 | 0.00 | 83 | 1017.0 |
| 20260905153103 | 84 | 32 | 4.3 | 10.4 | 0.00 | 0.00 | 0.00 | 83 | 1017.0 |
| 20260905151609 | 84 | 79 | 6.1 | 10.4 | 0.00 | 0.00 | 0.00 | 82 | 1016.9 |
| 20260905144605 | 83 | 35 | 5.2 | 9.6 | 0.00 | 0.00 | 0.00 | 82 | 1016.5 |
| 20260905143112 | 82 | 46 | 6.1 | 10.4 | 0.00 | 0.00 | 0.00 | 81 | 1016.4 |
| 20260905141606 | 81 | 44 | 5.2 | 9.6 | 0.00 | 0.00 | 0.00 | 82 | 1016.2 |
| 20260905134622 | 79 | 33 | 3.5 | 7.8 | 0.00 | 0.00 | 0.00 | 87 | 1016.1 |
| 20260905133101 | 78 | 46 | 1.7 | 4.3 | 0.00 | 0.00 | 0.00 | 89 | 1015.9 |
| 20260905131606 | 77 | 46 | 3.5 | 6.1 | 0.00 | 0.00 | 0.00 | 89 | 1015.5 |
| 20260905124605 | 74 | 56 | 0.9 | 4.3 | 0.00 | 0.00 | 0.00 | 93 | 1015.4 |
| 20260905123105 | 74 | 69 | 1.7 | 4.3 | 0.00 | 0.00 | 0.00 | 93 | 1015.3 |
| 20260905121602 | 73 | 13 | 0.9 | 3.5 | 0.00 | 0.00 | 0.00 | 95 | 1015.4 |
| 20260905120120 | 72 | 38 | 2.6 | 7.0 | 0.00 | 0.00 | 0.00 | 96 | 1015.2 |
| 20260905114601 | 72 | 16 | 3.5 | 5.2 | 0.00 | 0.00 | 0.00 | 97 | 1015.1 |
| 20260905113104 | 72 | 13 | 0.9 | 3.5 | 0.00 | 0.00 | 0.00 | 97 | 1015.1 |
| 20260905111614 | 71 | 13 | 2.6 | 3.5 | 0.00 | 0.00 | 0.00 | 97 | 1014.8 |
| 20260905110104 | 72 | 67 | 0.9 | 2.6 | 0.00 | 0.00 | 0.00 | 97 | 1014.7 |
| 20260905104603 | 72 | 67 | 0.0 | 1.7 | 0.00 | 0.00 | 0.00 | 97 | 1014.4 |
| 20260905103108 | 72 | 0 | 0.0 | 2.6 | 0.00 | 0.00 | 0.00 | 97 | 1014.1 |
| 20260905101602 | 72 | 67 | 0.0 | 0.9 | 0.00 | 0.00 | 0.00 | 97 | 1014.2 |
| 20260905100105 | 72 | 0 | 0.0 | 1.7 | 0.00 | 0.00 | 0.00 | 96 | 1014.3 |
| 20260905094604 | 73 | 67 | 0.9 | 1.7 | 0.00 | 0.00 | 0.00 | 97 | 1014.5 |
| 20260905093102 | 73 | 0 | 0.0 | 1.7 | 0.00 | 0.00 | 0.00 | 96 | 1014.5 |
| 20260905091623 | 73 | 0 | 0.0 | 1.7 | 0.00 | 0.00 | 0.00 | 96 | 1014.7 |